Regional Weather Roundup
Issued by NWS Portland, ME

Current Version | Previous Version | Text Only | Print | Product List | Glossary Off
Versions: 1 2 3 4 5 6 7 8 9 10 11 12 13 14 15 16 17 18 19 20 21 22 23 24 25 26 27 28 29 30 31 32 33 34 35 36 37 38 39 40 41 42 43 44 45 46 47 48 49 50
000 ASUS41 KGYX 212310 RWRGYX WEATHER ROUNDUP FOR MAINE AND NEW HAMPSHIRE NATIONAL WEATHER SERVICE GRAY ME 700 PM EDT THU SEP 21 2017 MEZ002-005-006-010-012-015-018-020-021-024-026-027-029-220000- MAINE CITY SKY/WX TMP DP RH WIND PRES REMARKS PORTLAND CLOUDY 66 49 54 N9 30.07R BAR HARBOR PTCLDY 64 50 60 NE8 30.09R WISCASSET CLOUDY 68 50 52 CALM 30.09R ROCKLAND PTCLDY 63 51 65 VRB5 30.07R FRYEBURG CLOUDY 62 54 74 CALM 30.11S LEWISTONAUBURN PTCLDY 64 52 64 N6 30.10R AUGUSTA PTCLDY 65 49 56 N7 30.11R WATERVILLE CLOUDY 63 52 67 N7 30.08S BANGOR CLOUDY 66 45 46 N8 30.11R GREENVILLE N/A 61 48 62 NE3 30.15R MILLINOCKET CLEAR 65 49 56 NE5 30.15R HOULTON CLEAR 62 46 55 E6 30.15R PRESQUE ISLE CLEAR 61 49 64 NW6 30.18R FRENCHVILLE CLEAR 63 38 39 E5 30.18R CARIBOU CLEAR 64 40 41 N5 30.17R $$ NHZ002-005-008-009-011-012-014-220000- NEW HAMPSHIRE CITY SKY/WX TMP DP RH WIND PRES REMARKS PORTSMOUTH MOCLDY 68 51 54 N12 30.04R ROCHESTER CLOUDY 64 50 60 NW8 30.06R NASHUA CLOUDY 68 52 56 NW8 30.06R MANCHESTER CLOUDY 68 51 54 N12 30.04S CONCORD CLOUDY 67 51 56 N9 30.07S PLYMOUTH FAIR 62 54 74 CALM 30.10R BERLIN CLOUDY 60 52 74 CALM 30.14R WHITEFIELD PTCLDY 61 52 72 CALM 30.12S JAFFREY CLOUDY 65 54 67 CALM 30.09R KEENE CLOUDY 65 53 65 CALM 30.08R LEBANON PTCLDY 64 59 83 CALM 30.08R MT WASHINGTON MOCLDY 50 10 20 E29 N/A $$ VTZ005-007-008-220000- VERMONT CITY SKY/WX TMP DP RH WIND PRES REMARKS ST JOHNSBURY N/A 67 55 65 MISG 30.10R MONTPELIER CLEAR 66 56 70 CALM 30.16R BURLINGTON CLOUDY 72 57 59 N7 30.11R $$ MAZ007-012-024-CTZ003-RIZ002-NYZ038-NYZ072-220000- SOUTHERN NEW ENGLAND AND NY CITY SKY/WX TMP DP RH WIND PRES REMARKS BOSTON CLOUDY 67 52 58 N16 30.01S WORCESTER CLOUDY 63 49 60 N13G22 30.04S NANTUCKET HVY RAIN 61 60 97 N40G53 29.78F FOG PROVIDENCE CLOUDY 70 52 52 N20G29 29.98R HARTFORD CLOUDY 69 56 62 N7 30.03R ALBANY CLOUDY 73 59 61 NE5 30.06S NEW YORK CITY CLOUDY 77 64 64 N8 29.99S $$ ANZ081-ANZ082-ANZ150-NHZ014-MEZ023>029-220000- COASTAL MARINE OBSERVATIONS STATION/POSITION TIME TEMP WIND PRES WAVE AIR SEA DIR/SP/G HT/PER (UTC) (F) (DEG/KT/KT) (MB) (FT/S) MOUNT DESERT ROC 2300 60 30/ 24/ 26 1017.7R MATINICUS ROCK 2300 59 50/ 23/ 24 1017.3R ISLE OF SHOALS 2300 62 20/ 13/ 14 1016.7R JEFFREYS LEDGE 2236 63 N/A 11/ 8 CASHES LEDGE BUO 2150 61 61 1015.4 10/ 8 GEORGES BANK BUO 2150 76 75 1001.4 16/ 8 $$ .............KEY.............. WCI - WIND CHILL TC - TEMPERATURE IN CELSIUS VSB - VISIBILITY IN MILES HX - HEAT INDEX FAIR- INDICATES FEW OR NO CLOUDS BELOW 12,000 FT, WITH NO SIGNIFICANT WEATHER AND/OR OBSTRUCTIONS TO VISIBILITY.

USA.gov is the U.S. government's official web portal to all federal, state and local government web resources and services.